Regional Weather Roundup
Issued by NWS Newport/Morehead, NC

Current Version | Previous Version | Graphics & Text | Print | Product List | Glossary Off
Versions: 1 2 3 4 5 6 7 8 9 10 11 12 13 14 15 16 17 18 19 20 21 22 23 24 25 26 27 28 29 30 31 32 33 34 35 36 37 38 39 40 41 42 43 44 45 46 47 48 49 50

000
ASUS42 KMHX 231822
RWRMHX
WEATHER ROUNDUP FOR EASTERN NORTH CAROLINA
NATIONAL WEATHER SERVICE NEWPORT/MOREHEAD CITY NC
200 PM EDT THU OCT 23 2014

NOTE: "FAIR" INDICATES FEW OR NO CLOUDS BELOW 12,000 FEET
WITH NO SIGNIFICANT WEATHER AND/OR OBSTRUCTIONS TO VISIBILITY

NCZ015>017-031-032-045>047-102-103-231900-
NORTH COAST

CITY           SKY/WX    TMP DP  RH WIND       PRES   REMARKS
EDENTON        SUNNY     66  47  51 NW13G22   29.87F
ELIZABETH CITY MOSUNNY   68  48  48 W15G22    29.87S
KITTY HAWK     CLOUDY    63  48  57 W10G17    29.85R
MANTEO         PTSUNNY   63  47  56 W10G17    29.87S

$$

NCZ045>047-081-094-103-104-231900-
CENTRAL COAST

CITY           SKY/WX    TMP DP  RH WIND       PRES   REMARKS
FRISCO         SUNNY     63  48  58 NW10      29.88F
SWANQUARTER      N/A     66 N/A N/A W15G22    29.85S

$$

NCZ095-097-098-100-101-231900-
SOUTHERN COAST

CITY           SKY/WX    TMP DP  RH WIND       PRES   REMARKS
BEAUFORT       SUNNY     67  47  48 NW13      29.90F
CEDAR ISLAND     N/A     64 N/A N/A NW5G15    29.91F
JACKSONVILLE   SUNNY     67  44  43 W13       29.92F
PINEY ISLAND   CLEAR     68  45  43 W15       29.90F
WILMINGTON     SUNNY     68  44  42 W12G21    29.95F


$$

NCZ011>013-027>030-043-044-078>080-089-090>093-098-231900-
COASTAL PLAIN

CITY           SKY/WX    TMP DP  RH WIND       PRES   REMARKS
AHOSKIE        SUNNY     64  46  51 NW7       29.89F
CLINTON        SUNNY     67  47  48 W7        29.96F
ELIZABETHTOWN  SUNNY     66  41  39 NW8       29.96F
GOLDSBORO      SUNNY     68  48  50 W10G16    29.91F
GREENVILLE     SUNNY     66  45  45 NW12      29.94F
HAVELOCK       SUNNY     68  44  42 W16G23    29.92F
KENANSVILLE    SUNNY     66  42  41 W9        29.94F
KINSTON        SUNNY     68  45  42 W7        29.93F
NEW BERN       SUNNY     69  45  41 NW12      29.92F
RICHLANDS      SUNNY     66  43  42 W10G17    29.92F
ROCKY MOUNT    SUNNY     67  44  43 NW13      29.93F
WASHINGTON     SUNNY     65  46  49 NW10G16   29.90F
WHITEVILLE     SUNNY     67  42  40 W7        29.96F

$$

AMZ130-135-150-152-154-156-158-170-250-252-270-ANZ085-086-088-633-658-670-231900-
MARINE OBSERVATIONS

STATION/POSITION TIME  TEMP    WIND        PRES    WAVE   SWELL
                       AIR SEA DIR/SP/G            HT/PER HT/PER
                 (UTC) (F)     (DEG/KT/KT) (MB)    (FT/S) (FT/S)
CHESAPEAKE LIGHT 1800   59     320/ 26/ 29 1010.4
64 E VA BEACH    1800   60 67  320/ 25/ 29 1008.4    9/ 6
DUCK             1800   62 67  320/ 16/ 19 1009.9
2 E DUCK         1700                        N/A     5/ 9   2/11
10 NE DUCK       1800      69                N/A     6/ 7   2/11
OREGON INLET     1800   61 63  290/ 12/ 19 1011.1
13E OREGON INLT  1800      70                N/A     8/10   2/11
HATTERAS CG      1800   61 62  300/ 14/ 18 1011.8
DIAMOND BUOY     1800   62     300/ 19/ 23 1011.5    6/10   3/10
17 S OCRACOKE    NOT AVBL
CAPE LOOKOUT     1800   63     260/ 15/ 17 1012.5
BEAUFORT LAB     1800   65 66  250/  7/ 13 1011.8
30 SE NEW RIVER  1800   63 75  290/ 14/ 16 1013.5    2/ 4   2/10
5 SE WRIGHTSVLE  1800   62 72  300/ 10/ 12   N/A
225 S CAPE HAT   1719   71 78  310/ 16/ 21 1013.9    8/ 9   7/ 9
41 SE CHARLESTON 1800   63 78  310/  8/ 12 1016.3    3/ 5   2/ 5

$$



USA.gov is the U.S. government's official web portal to all federal, state and local government web resources and services.